Regional Weather Roundup
Issued by NWS

Home | Current Version | Previous Version | Text Only | Print | Product List | Glossary Off
Versions: 1 2 3 4 5 6 7 8 9 10 11 12 13 14 15 16 17 18 19 20 21 22 23 24 25 26 27

000
ASUS45 KTFX 200910
RWRMT
MONTANA REGIONAL WEATHER ROUNDUP
NATIONAL WEATHER SERVICE GREAT FALLS MT
300 AM MDT FRI APR 20 2018

NOTE: "FAIR" INDICATES FEW OR NO CLOUDS BELOW 12000 FEET WITH NO
SIGNIFICANT WEATHER AND/OR OBSTRUCTIONS TO VISIBILITY.

MTZ001>007-043-201000-
WEST OF THE DIVIDE

CITY           SKY/WX    TMP DP  RH WIND       PRES   REMARKS
KALISPELL      FAIR      27  25  92 CALM      30.12F
MISSOULA       FAIR      34  25  69 NE3       30.14S
BUTTE          FAIR      31  24  75 SE5       30.12R
MULLAN PASS    FAIR      33  23  66 NW6       30.14F WCI  28
ANACONDA         N/A     36  19  51 SW5       30.13R
DEER LODGE       N/A     34  23  64 CALM      30.14S
HAMILTON         N/A     36  25  64 MISG      30.14R
RONAN            N/A     34  30  86 CALM      30.14S
$$

MTZ008-052>055-201000-
SOUTHWEST MONTANA

CITY           SKY/WX    TMP DP  RH WIND       PRES   REMARKS
BOZEMAN        FAIR      36  28  73 S7        30.08S WCI  30
DILLON         FAIR      32  26  78 S3        30.08R
ENNIS          CLEAR     32  25  74 CALM      30.10R
W YELLOWSTONE  FAIR      28  21  74 CALM      30.04S
THREE FORKS      N/A     34  27  76 CALM      30.06S
TWIN BRIDGES     N/A     39  24  55 N2        30.05
$$

MTZ009-010-012-014-046-048-049-054-201000-
EAST SLOPES AND CENTRAL MONTANA

CITY           SKY/WX    TMP DP  RH WIND       PRES   REMARKS
CUT BANK       FAIR      32  25  75 W7        30.07F WCI  26
GREAT FALLS    FAIR      33  30  88 SW8       30.08S WCI  26
HELENA         FAIR      40  29  64 W3        30.09S
AUGUSTA        FAIR      37  27  66 NW14      30.08F WCI  28
BOWMANS CRNR   FAIR      32  25  74 W7        30.07F WCI  26
CHOTEAU          N/A     36  30  80 W5        30.10S
FAIRFIELD      FAIR      35  31  83 NW3       30.07F
POWER          FAIR      34  32  93 W3        30.07S
RAYNESFORD     FAIR      35  27  74 CALM      30.10R
ULM            FAIR      33  29  84 CALM      30.09S
WHITE SULPHUR    N/A     30  25  80 S7        30.09R WCI  23
$$

MTZ011-013-016-021-045-047-050-051-201000-
NORTH CENTRAL MONTANA

CITY           SKY/WX    TMP DP  RH WIND       PRES   REMARKS
HAVRE          FAIR      38  34  85 E12       30.06F WCI  30
LEWISTOWN      FAIR      38  31  76 SE7       30.08F
N BAR RANCH    FAIR      36  28  75 W6        30.12S WCI  31
CHINOOK          N/A     37  36  93 MISG      30.09F
GEYSER         FAIR      39  28  65 SW13      30.07S WCI  31
GRASS RANGE    FAIR      37  32  81 W6        30.06F
STANFORD       FAIR      37  27  67 W3        30.07S
$$

MTZ017>020-022>027-061-062-201000-
NORTHEAST MONTANA

CITY           SKY/WX    TMP DP  RH WIND       PRES   REMARKS
GLASGOW        FAIR      41  34  76 E15       30.14F
GLENDIVE       FAIR      38  30  73 E8        30.18F
JORDAN           N/A     42  33  70 E9        30.11F
MALTA          CLEAR     41  36  81 E9        30.11F
SIDNEY         FAIR      36  31  82 CALM      30.23F
WOLF POINT     FAIR      37  34  89 NE8       30.19F FOG     WCI  31
PLENTYWOOD       N/A     36  36 100 CALM      30.23S
POPLAR           N/A     36  34  93 NE8       30.20F WCI  29
$$

MTZ028>42-056>058-201000-
SOUTHCENTRAL AND SOUTHEAST MONTANA

CITY           SKY/WX    TMP DP  RH WIND       PRES   REMARKS
BAKER          FAIR      35  32  88 E14       30.15F WCI  26
BILLINGS       FAIR      41  33  73 N12       30.04S
LIVINGSTON     FAIR      34  27  75 NW3       30.08S
MILES CITY     FAIR      43  33  68 E9        30.10F
BIG TIMBER     CLEAR     36  28  75 S5        30.09
FORSYTH          N/A     41  34  75 NE8       30.07S
LAUREL           N/A     41  34  75 N12       30.06R
$$

REGIONAL REPORTS...DAKOTAS

CITY           SKY/WX    TMP DP  RH WIND       PRES   REMARKS
WILLISTON      FAIR      30  27  88 N3        30.24F
MINOT          FAIR      31  30  96 CALM      30.29F FOG
DICKINSON      FAIR      32  28  85 SE10      30.22F WCI  24
BEACH          FAIR      36  30  80 E15       30.21F WCI  26
CROSBY         FAIR      36  34  93 SE3       30.26F
TIOGA          FAIR      30  30 100 CALM      30.27S FOG
WATFORD CITY   FAIR      32  32 100 CALM      30.25S
BISMARCK       FAIR      34  28  79 SE3       30.33S
GRAND FORKS    FAIR      31  30  96 S6        30.39R WCI  25
FARGO          FAIR      36  31  82 S8        30.41R WCI  30
BUFFALO SD       N/A     39  28  64 E12       30.09F WCI  32
RAPID CITY     FAIR      34  28  79 SE7       30.16F WCI  28
$$

REGIONAL REPORTS...WYOMING/IDAHO/WASHINGTON

CITY           SKY/WX    TMP DP  RH WIND       PRES   REMARKS
GILLETTE         N/A    N/A N/A N/A MISG      30.03S
SHERIDAN       FAIR      48  32  53 SE12      30.00S
BUFFALO WY     FAIR      41  30  65 S8        30.03S
CODY           FAIR      43  26  51 SE3       30.02
YELLOWSTONE LA   N/A     27  16  63 CALM      30.07F
IDAHO FALLS    FAIR      42  27  55 N15       29.93F
SALMON         FAIR      43  24  47 S5        30.09R
BOISE          FAIR      45  30  55 NW10      30.03R
SPOKANE        FAIR      43  33  68 SW8       30.15S
$$

REGIONAL REPORTS...ALBERTA

CITY           SKY/WX    TMP DP  RH WIND       PRES   REMARKS
CALGARY        PTCLDY    34  25  69 S3        30.01R
CARDSTON         N/A     36  23  60 SW9         N/A  WCI  29
EDMONTON       CLEAR     37  25  60 W7        29.96S
FORT MCMURRAY  CLOUDY    45  30  57 SW12G17   29.89F
HIGH LEVEL     CLEAR     39  28  65 S3        29.69S
LETHBRIDGE     CLEAR     34  27  75 SW9G18    30.03F WCI  26
LLOYDMINSTER   PTCLDY    36  30  80 S10       30.01F WCI  28
MEDICINE HAT   CLEAR     45  34  65 S9G18     30.04S
MILK RIVER       N/A     36  32  87 SE5         N/A
ONEFOUR          N/A     34  32  93 E12         N/A  WCI  25
PEACE RIVER    CLEAR     34  27  75 SW10      29.88S WCI  26
PINCHER CREEK  CLEAR     36  25  64 W13       30.04F WCI  27
WATERTON GATE    N/A     43  21  42 SW16G23     N/A
$$

REGIONAL REPORTS...SASKATCHEWAN

CITY           SKY/WX    TMP DP  RH WIND       PRES   REMARKS
CORONACH         N/A     34  32  93 E7          N/A  WCI  28
CYPRESS HILLS    N/A     34  28  80 SE7         N/A  WCI  28
ESTEVAN        PTCLDY    32  30  93 E7        30.26F WCI  26
MOOSE JAW        N/A     30  28  93 E7          N/A  WCI  23
PRINCE ALBERT  MOCLDY    37  30  75 S10       30.21F WCI  30
REGINA         CLEAR     32  28  86 SE10      30.25S WCI  24
ROCKGLEN         N/A     34  32  93 SE13        N/A  WCI  25
SASKATOON      CLEAR     39  30  70 S15       30.18F WCI  31
SWIFT CURRENT  CLEAR     34  30  86 SE13      30.11F WCI  25
VAL MARIE        N/A     36  30  80 SE1         N/A
$$




USA.gov is the U.S. government's official web portal to all federal, state and local government web resources and services.